Вернуться в каталог

FENGYUN 1C DEB

АктивенSSO
NORAD 31816·DEBRIS·🇨🇳 China

Запущен May 10, 1999 с Taiyuan Satellite Launch Center

Loading…

Ближайшие Пролёты (ближайшие 24 часа)

TLE

СвежийSource: Space-Track

Эпоха: Sep 14, 2026, 06:24 UTC

1 31816U 99025CHE 26257.26708722  .00000840  00000-0  61830-3 0  9993
2 31816  98.9987   9.4142 0121251 120.5950 270.4979 13.94855629975343

Отслеживайте FENGYUN 1C DEB в реальном времени с AllMySat

Download on the App Store